Weather in Betalbatim

India     15°18′03″N   73°55′11″E
temp.,
°C
wind,
m/s
gust,
m/s
humid.,
%
clouds,
%
prec.,
mm/h
press.,
hPa
HPBL,
m
6 may, thu
thu623:30+29nw137090 0.0 1008185
02:30+28nw117690 0.0 100669
05:30+27ese117870 0.0 100748
08:30+31wsw016189 0.0 1009516
11:30+33wnw2252100 0.0 10091137
14:30+34wsw545458 0.0 1007971
17:30+32ssw335989 0.9 1007888
20:30+28ssw127731 0.6 1009101
7 may, fri
fri723:30+26ese11838 2.3 101078
02:30+27nne128564 0.0 100788
05:30+26ese118855 0.0 100946
08:30+29ne017399 0.0 1011286
11:30+34nw225022 0.0 10101020
14:30+35w744838 0.0 10071349
17:30+29nnw2371100 3.2 1008252
20:30+25ese2480100 3.2 1011142
8 may, sat
sat823:30+26nne1277100 3.3 101072
02:30+26ene1275100 0.0 100762
05:30+26e1173100 0.0 100838
08:30+30nw005782 0.0 1010369
11:30+35wnw334592 0.0 10091388
14:30+35w644980 0.0 10061196
17:30+31nw5665100 0.4 1006877
20:30+26e0183100 2.0 1008153
9 may, sun
sun923:30+27ene127973 2.0 100966
02:30+26n117846 0.0 100747
05:30+26e118246 0.0 100842
08:30+28ene117597 0.0 1010185
11:30+34nw3349100 0.0 10091127
14:30+35w6448100 0.0 10061303
17:30+32wnw446099 0.0 1006849
20:30+29wnw357577 0.1 1008423
10 may, mon
mon1023:30+28ne1278100 0.2 1009143
02:30+27nne1281100 0.0 100697
05:30+27nne1284100 0.0 1007106
08:30+30nnw236716 0.0 1009807
11:30+35wnw434976 0.0 10081452
14:30+33w655568 0.0 10071231
17:30+31wnw556396 0.0 10061105
20:30+29nw3673100 0.0 1008562